Location: Charentilly
(47.4702°N, 0.6096°E)
Time: 17:02:33
(UTC+02:00)

ISS - Visible Passes

Search period start: 19 July 2018 00:00
Search period end: 29 July 2018 00:00
Orbit: 402 x 408 km, 51.6° (Epoch: 19 July)

Date Brightness Start Highest point End Pass type
(mag) Time Alt. Az. Time Alt. Az. Time Alt. Az.
19 Jul -3.1 01:30:34 21° W 01:32:31 54° NNW 01:35:46 10° ENE visible
19 Jul -2.3 03:06:15 10° WNW 03:09:23 38° N 03:12:31 10° ENE visible
19 Jul -3.8 04:42:50 10° WNW 04:46:09 84° NNE 04:49:27 10° ESE visible
19 Jul -2.7 23:01:29 10° SSW 23:04:07 23° SE 23:06:47 10° E visible
20 Jul -3.7 00:37:05 10° WSW 00:40:21 74° NNW 00:43:39 10° ENE visible
20 Jul -2.3 02:14:02 10° WNW 02:17:09 38° N 02:20:16 10° ENE visible
20 Jul -3.2 03:50:44 10° WNW 03:54:00 59° NNE 03:57:16 10° E visible
20 Jul -3.1 05:27:23 10° W 05:30:22 32° SW 05:33:21 10° SSE visible
20 Jul -4.0 23:44:58 10° WSW 23:48:14 74° SSE 23:51:32 10° ENE visible
21 Jul -2.5 01:21:46 10° W 01:24:55 41° N 01:28:04 10° ENE visible
21 Jul -2.7 02:58:36 10° WNW 03:01:49 46° NNE 03:05:00 10° E visible
21 Jul -3.8 04:35:08 10° WNW 04:38:22 53° SSW 04:41:35 10° SE visible
21 Jul -3.6 22:53:01 10° SW 22:56:10 45° SSE 22:59:20 10° ENE visible
22 Jul -2.9 00:29:28 10° W 00:32:40 49° NNW 00:35:54 10° ENE visible
22 Jul -2.4 02:06:26 10° WNW 02:09:34 39° N 02:12:42 10° ENE visible
22 Jul -4.0 03:42:58 10° WNW 03:46:16 84° SSW 03:49:34 10° ESE visible
22 Jul -2.2 05:20:14 10° W 05:22:21 16° SW 05:24:28 10° S visible
22 Jul -3.4 23:37:12 10° WSW 23:40:28 65° NNW 23:43:44 10° ENE visible
23 Jul -2.3 01:14:11 10° WNW 01:17:17 38° N 01:20:24 10° ENE visible
23 Jul -2.9 02:50:49 10° WNW 02:53:16 44° NW 02:53:16 44° NW visible
23 Jul -3.9 22:45:01 10° WSW 22:48:18 87° SSE 22:51:36 10° ENE visible
24 Jul -2.4 00:21:53 10° WNW 00:25:00 39° N 00:28:08 10° ENE visible
24 Jul -2.9 01:58:40 10° WNW 02:01:39 48° N 02:01:39 48° N visible
24 Jul -2.7 23:29:34 10° W 23:32:44 45° NNW 23:35:55 10° ENE visible
25 Jul -2.6 01:06:28 10° WNW 01:09:37 41° N 01:10:40 31° NE visible
25 Jul -1.1 02:43:00 10° WNW 02:43:16 12° WNW 02:43:16 12° WNW visible
25 Jul -3.1 22:37:14 10° W 22:40:28 58° NNW 22:43:43 10° ENE visible
26 Jul -2.4 00:14:13 10° WNW 00:17:19 38° N 00:19:51 14° ENE visible
26 Jul -2.1 01:50:48 10° WNW 01:52:29 27° WNW 01:52:29 27° WNW visible
26 Jul -2.4 23:21:53 10° WNW 23:24:59 38° N 23:28:07 10° ENE visible
27 Jul -3.2 00:58:37 10° WNW 01:01:47 54° N 01:01:47 54° N visible
27 Jul -2.6 22:29:32 10° W 22:32:40 42° N 22:35:50 10° ENE visible
28 Jul -2.7 00:06:23 10° WNW 00:09:33 43° N 00:11:07 24° ENE visible
28 Jul -1.4 01:42:55 10° WNW 01:43:45 17° WNW 01:43:45 17° WNW visible
28 Jul -2.5 23:14:07 10° WNW 23:17:13 38° N 23:20:20 10° ENE visible
